Temp_Advection
nan nan nan nan nan nan nan nan nan nan nan nan nan nan nan nan nan nan nan nan nan nan nan nan nan nan nan nan nan nan nan nan nan nan nan nan nan nan
nan -0 -0 -0 -0 -0 -0 -0 -0 -0 -1 -1 -1 -1 -1 -1 -1 -1 -1 -1 -1 -1 -1 -0 -0 0 -0 -1 -1 -1 -2 -1 -1 -2 -2 -2 -2 nan
nan -0 -0 -0 -0 -0 -0 -0 -1 -0 -0 -1 -1 -0 -1 -1 -1 -1 -1 -1 -1 -1 -1 -0 -0 -0 -0 -0 -1 -1 -1 -1 -1 -1 -1 -2 -2 nan
nan -0 -0 -0 -0 -0 -0 -0 -0 -0 -1 -0 -0 -1 -1 -1 -1 -1 -1 -1 -1 -1 -1 -1 -1 -1 -0 -0 -0 -1 -1 -1 -0 -0 -3 -4 -1 nan
nan -0 -0 -0 -0 -0 -0 -0 -0 -0 -0 -0 -1 -1 -0 -1 -1 -1 -1 -1 -1 -1 -1 -1 -1 -1 -1 -1 -1 -1 -1 -1 -1 -1 -1 -2 -2 nan
nan -1 -0 -0 0 0 0 -0 -0 -0 -0 -0 -1 -0 -0 -1 -0 -1 -1 -1 -1 -1 -1 -1 -1 -1 -1 -1 -1 -1 -1 -1 -1 -1 -1 -2 -2 nan
nan -1 -0 -0 -0 -0 0 1 0 -0 -0 -0 -1 -1 -0 -0 -1 -1 -1 -1 -1 -1 -1 -1 -1 -1 -1 -1 -1 -1 -1 -0 -1 -1 -1 -2 -2 nan
nan -1 -0 -0 -0 -0 -0 0 0 0 0 -0 -1 -0 -0 -1 -1 -1 -0 -1 -1 -1 -1 -1 -1 -1 -1 -1 -1 -1 -1 -0 -1 -1 -1 -2 -1 nan
nan -0 -0 -0 -0 -0 -1 -0 -0 -0 0 0 0 -0 -0 -0 -0 -1 -1 -0 -1 -1 -1 -1 -1 -1 -1 -1 -1 -1 -1 -0 -1 -2 -1 -1 -1 nan
nan -0 -0 -0 -0 -0 -0 -0 -1 -1 -1 -0 0 0 -0 -0 -0 0 -0 -1 -1 -1 -1 -1 -1 -1 -1 -1 -1 -1 -0 -0 -1 -2 -2 -1 -1 nan
nan -0 -0 -0 -1 -0 0 0 -0 -1 -1 -1 -0 -0 -0 -0 -0 -0 -0 -1 -1 -1 -0 -1 -2 -1 -1 -2 -1 -1 -1 -0 -0 -0 -1 -2 -1 nan
nan -1 -1 -0 -0 -0 0 0 -0 -0 -0 -1 -1 -1 -1 -1 -1 -1 -0 -0 -1 -1 -0 -0 -1 -2 -2 -2 -1 0 -1 -1 -1 -2 -2 -1 -1 nan
nan -0 -1 -1 -0 -0 0 1 -0 -0 0 -0 -0 -0 -0 -0 -0 -0 -0 -0 -1 -1 -1 -0 -0 -1 -1 -1 -1 -1 -1 -1 -2 -2 -2 -2 -1 nan
nan -0 -0 -1 -1 -1 -0 -0 -0 -0 0 -0 -0 -0 -0 -0 -0 -0 -0 -0 0 -0 -0 0 0 -0 -1 -0 -0 -1 -1 -1 -1 -1 0 -0 0 nan
nan -0 -0 -0 -0 -0 -1 -1 -0 -0 -0 -0 -0 -0 -0 -0 -0 -0 -0 -0 -0 0 -0 -0 0 0 0 0 -0 -1 -1 -1 -0 0 1 1 1 nan
nan -1 -0 -0 -0 -0 -0 -1 -1 -0 -0 -0 -0 -0 -0 -0 -0 0 -0 0 -0 -1 -0 -0 0 0 -0 -0 -0 -0 -0 -0 -0 1 1 1 2 nan
nan -0 -0 -0 -1 -1 -1 -0 -0 -0 -1 -0 -0 -0 -0 -1 -0 0 0 0 0 -0 -1 -0 -0 -0 0 -0 -0 -0 -0 -0 0 1 1 -0 1 nan
nan -0 -0 -0 -0 -0 -0 -0 -0 -0 -0 -0 -0 -0 -0 -0 -0 -0 -1 -0 -0 -0 -0 -0 -0 -0 0 -0 -0 0 0 0 0 1 1 0 0 nan
nan -0 -0 -0 -0 -0 -0 -0 -0 -0 -0 0 0 0 -0 0 -0 -0 -1 -1 -0 0 0 0 0 0 -0 -0 0 0 1 1 1 1 1 0 0 nan
nan -0 -0 -0 -0 -0 -0 -0 -0 -0 -0 0 0 0 0 -0 -0 -0 0 -0 -0 0 0 0 0 0 -0 0 0 1 1 1 0 -0 0 1 1 nan
nan -0 -0 -0 -0 -0 -0 -0 0 1 0 1 0 0 0 -0 -0 -0 0 0 0 0 0 -0 0 0 0 0 1 1 1 1 1 -0 0 0 1 nan
nan -0 -0 -0 0 0 0 0 0 1 1 0 0 0 0 0 0 0 0 0 0 0 0 0 0 0 0 -0 -0 1 1 1 1 0 0 -0 -0 nan
nan nan nan nan nan nan nan nan nan nan nan nan nan nan nan nan nan nan nan nan nan nan nan nan nan nan nan nan nan nan nan nan nan nan nan nan nan nan
Wind_Speed
24 26 25 29 28 29 29 29 31 40 46 44 42 38 34 37 36 36 40 40 40 40 42 46 41 39 45 43 40 39 39 37 35 35 36 39 39 37
26 27 28 29 31 30 32 31 31 34 42 44 46 45 44 37 41 38 38 41 42 41 40 41 42 43 46 43 43 42 42 37 36 35 37 35 36 39
26 28 30 30 31 31 32 33 34 32 37 46 44 44 46 45 43 39 40 37 40 40 40 41 42 45 48 47 46 43 41 39 37 33 33 34 33 34
29 30 31 31 32 32 32 33 33 34 38 41 44 45 46 44 43 40 40 39 43 43 40 41 45 42 41 43 45 41 40 38 37 39 36 36 37 35
29 30 31 31 32 32 32 33 36 36 35 40 46 44 45 41 42 38 43 46 41 40 41 40 39 40 41 42 41 42 42 39 37 33 31 31 34 35
29 30 30 31 31 33 36 35 33 36 42 39 42 43 42 44 35 43 50 43 43 45 43 42 41 39 41 41 37 38 36 37 38 32 31 28 28 33
30 29 30 31 32 31 32 34 38 39 40 42 43 40 36 42 40 45 47 48 49 41 42 43 41 40 39 39 38 39 40 38 36 34 32 30 31 26
31 32 31 32 31 32 31 36 36 39 43 43 49 34 38 42 48 42 44 46 52 41 39 47 42 44 43 40 37 33 35 37 37 33 31 34 35 31
31 32 34 33 32 37 37 36 37 39 40 40 43 38 43 47 46 49 44 44 48 52 43 47 43 40 38 36 35 36 33 34 35 34 34 30 33 36
31 32 34 35 39 35 40 42 45 43 44 42 43 43 44 47 46 43 46 50 47 44 34 41 37 45 40 41 40 40 36 34 34 32 27 32 33 33
32 32 35 36 37 37 40 44 47 46 44 38 38 42 42 38 38 39 42 40 43 39 34 38 39 34 42 46 40 30 24 19 19 25 29 31 35 36
36 38 35 36 36 38 40 45 43 45 42 45 43 40 37 37 32 32 37 40 42 40 35 37 41 37 35 28 17 20 38 35 27 28 29 35 36 35
42 41 39 38 38 38 43 39 39 40 43 39 41 40 39 36 37 38 38 39 41 43 41 35 39 38 34 38 34 32 36 28 27 24 21 26 28 31
40 41 41 41 38 42 36 36 36 35 38 38 39 39 38 39 42 40 37 36 36 39 37 33 38 37 37 32 31 32 31 25 22 8 4 8 16 20
39 40 39 40 39 34 36 33 32 36 36 38 38 40 42 41 40 41 40 37 34 32 30 27 25 29 26 27 30 29 22 19 13 5 14 11 21 22
41 40 40 35 34 34 35 35 35 34 35 38 39 41 40 40 41 39 39 37 35 31 21 15 14 17 14 18 21 20 15 11 3 11 13 21 26 30
39 38 33 35 36 36 36 36 37 36 39 40 40 40 40 40 37 34 37 30 21 19 20 16 13 10 4 14 12 7 7 6 7 15 18 23 27 33
34 32 35 34 35 37 38 40 41 40 41 41 40 40 39 37 36 36 30 24 21 21 22 22 16 9 6 9 4 3 1 12 15 18 23 27 28 28
31 32 32 35 37 38 39 40 42 42 42 40 39 38 34 32 31 30 26 22 21 21 20 21 18 11 10 8 10 7 15 21 24 28 29 31 35 35
31 32 34 36 38 39 41 42 43 43 40 38 35 33 30 30 31 28 25 23 23 21 19 18 16 17 16 14 13 13 16 24 28 33 34 34 34 34
33 35 36 37 38 40 41 41 40 39 36 35 34 32 30 29 28 26 24 20 17 18 17 17 11 13 13 19 25 24 20 24 28 33 34 36 35 37
35 35 35 36 39 40 39 39 38 36 35 35 34 32 32 29 25 24 21 19 19 16 12 12 9 10 12 23 27 27 26 25 26 27 27 27 26 20
33 33 35 37 38 37 36 36 35 34 34 34 34 33 31 24 23 20 19 17 16 14 11 10 12 13 15 17 22 23 21 19 18 18 17 14 14 21
Wind_Direction
304 305 303 300 300 299 295 297 297 302 301 304 305 305 304 301 304 296 299 294 294 292 291 293 292 288 291 292 289 282 281 286 286 280 277 274 272 271
308 304 302 303 301 302 297 297 293 292 292 299 302 303 305 303 302 301 300 296 295 290 290 289 289 289 288 287 285 284 282 282 282 283 277 275 268 263
306 304 302 302 301 301 299 299 296 294 295 296 298 300 302 305 303 302 303 299 298 293 291 289 288 288 288 290 286 284 282 280 282 277 276 269 267 264
306 304 302 302 301 301 302 300 298 300 297 296 300 302 302 302 305 305 307 303 298 297 293 290 290 288 287 288 286 284 282 280 276 281 277 271 263 264
304 303 302 303 302 303 303 303 302 301 299 300 298 300 299 302 304 304 310 308 298 295 296 296 292 289 286 287 284 281 275 278 287 283 275 270 261 258
304 304 303 302 302 303 302 301 302 303 305 301 298 300 301 302 303 308 311 306 299 303 300 296 292 291 288 285 282 279 280 279 285 277 272 271 261 255
309 307 304 303 302 302 303 305 305 305 303 302 301 303 304 309 309 308 302 302 300 302 301 298 300 298 295 289 289 288 290 285 286 279 271 265 253 247
310 309 308 308 307 305 304 304 302 305 304 303 297 296 309 307 307 303 301 300 299 303 301 298 297 294 294 292 293 289 289 282 284 280 272 260 253 250
310 310 310 309 308 308 308 305 305 304 298 306 305 304 306 306 302 301 299 297 295 298 299 293 301 295 298 294 292 295 287 282 279 272 267 256 250 247
311 311 310 308 309 312 310 311 313 315 311 306 300 300 302 300 301 299 298 295 295 296 296 294 295 297 293 296 295 292 289 287 280 279 266 253 248 244
314 311 311 311 314 312 313 315 316 311 311 307 303 301 301 299 297 299 299 299 296 295 297 300 299 297 299 299 300 303 280 264 272 271 268 260 248 248
315 316 316 315 314 315 316 316 314 313 313 316 311 309 308 312 307 302 300 297 297 296 300 297 297 300 301 296 304 287 303 301 296 287 264 254 249 246
317 319 318 317 314 317 315 316 313 314 315 314 314 316 314 310 309 308 304 300 296 293 300 296 294 294 288 290 300 299 303 309 303 295 269 253 240 233
318 318 316 315 319 317 316 317 316 315 315 317 314 313 313 314 315 313 312 309 305 299 303 300 292 291 293 292 297 300 303 307 319 291 160 255 220 222
318 316 316 320 319 318 319 319 319 321 317 316 316 316 319 319 321 321 320 317 312 309 310 308 297 292 287 290 294 301 310 327 332 135 133 160 146 173
322 323 320 320 319 321 324 324 323 322 320 318 319 322 324 325 325 328 323 328 321 322 322 312 291 297 304 309 300 300 321 310 357 127 140 142 137 145
321 323 324 325 326 325 324 323 324 324 325 328 326 327 328 329 334 343 339 340 336 337 337 324 304 289 290 342 338 320 303 326 149 128 142 115 116 119
324 325 324 326 324 324 324 324 327 328 330 331 331 331 328 333 339 342 345 349 355 354 352 353 349 339 295 264 6 25 86 132 126 121 120 120 114 118
326 324 325 325 324 324 323 324 326 330 333 334 334 332 339 343 345 340 347 354 346 345 354 357 8 22 38 63 64 101 128 127 126 117 115 114 114 113
327 326 325 326 326 324 326 328 330 332 336 336 339 345 344 344 339 338 341 343 346 352 1 8 35 58 78 65 59 71 137 132 123 113 109 111 114 117
328 327 327 328 327 328 331 331 332 334 333 344 347 345 343 341 332 331 338 346 346 352 4 12 38 50 74 92 84 87 103 125 127 124 122 117 113 116
329 328 329 329 331 337 337 338 340 344 348 348 344 343 342 337 334 336 346 353 355 356 8 11 45 62 92 96 94 93 97 114 125 127 124 126 119 117
329 330 329 334 341 342 343 343 344 346 348 346 344 345 344 350 354 354 358 7 10 12 36 41 73 90 95 100 103 98 96 98 109 114 109 101 97 136
Height
1425 1420 1417 1412 1407 1402 1398 1393 1386 1369 1354 1353 1352 1352 1347 1344 1339 1335 1330 1325 1321 1316 1312 1308 1303 1299 1296 1290 1288 1285 1284 1283 1282 1281 1279 1276 1277 1277
1419 1415 1410 1405 1400 1396 1392 1387 1382 1375 1359 1352 1345 1341 1337 1334 1331 1327 1321 1316 1311 1306 1302 1298 1293 1289 1284 1280 1276 1274 1272 1271 1270 1270 1268 1267 1270 1272
1414 1409 1404 1399 1394 1390 1385 1379 1374 1369 1360 1346 1342 1335 1328 1324 1320 1316 1311 1306 1300 1296 1292 1287 1282 1278 1273 1267 1263 1261 1260 1259 1259 1258 1258 1257 1261 1259
1408 1403 1397 1393 1388 1383 1378 1372 1366 1361 1355 1343 1335 1329 1323 1317 1310 1305 1300 1296 1290 1284 1280 1276 1272 1267 1262 1256 1251 1249 1248 1248 1247 1245 1245 1244 1246 1250
1401 1396 1390 1386 1380 1376 1371 1364 1359 1353 1347 1340 1328 1323 1315 1309 1301 1296 1290 1283 1278 1273 1270 1265 1260 1256 1251 1246 1241 1237 1236 1235 1234 1233 1233 1234 1235 1237
1394 1389 1384 1380 1374 1369 1363 1357 1352 1345 1338 1331 1322 1314 1308 1301 1296 1288 1276 1274 1266 1264 1260 1254 1247 1243 1239 1235 1230 1226 1224 1223 1223 1222 1222 1222 1224 1226
1387 1383 1378 1373 1368 1363 1357 1351 1345 1337 1331 1323 1313 1306 1299 1293 1288 1282 1274 1262 1253 1255 1247 1239 1236 1231 1227 1224 1221 1218 1214 1212 1210 1209 1211 1212 1213 1216
1381 1376 1371 1366 1361 1356 1350 1345 1339 1331 1324 1315 1304 1297 1292 1287 1280 1274 1267 1257 1240 1247 1240 1228 1229 1220 1216 1213 1210 1207 1205 1202 1199 1198 1199 1201 1203 1204
1376 1370 1364 1359 1354 1347 1341 1335 1330 1325 1318 1309 1299 1293 1285 1280 1273 1263 1256 1249 1240 1231 1233 1218 1218 1210 1207 1203 1201 1197 1194 1191 1188 1187 1188 1189 1193 1196
1371 1366 1360 1352 1347 1340 1333 1324 1319 1313 1308 1302 1294 1285 1279 1271 1264 1256 1248 1238 1230 1225 1225 1212 1208 1201 1198 1193 1189 1186 1183 1181 1178 1176 1177 1179 1182 1185
1365 1360 1353 1345 1340 1334 1326 1317 1309 1301 1296 1290 1284 1277 1270 1263 1258 1248 1238 1232 1220 1215 1215 1208 1199 1192 1188 1181 1177 1175 1172 1169 1166 1166 1166 1166 1169 1171
1358 1351 1346 1340 1333 1327 1319 1311 1300 1292 1285 1277 1271 1265 1259 1252 1248 1242 1233 1224 1215 1205 1206 1201 1192 1189 1176 1173 1170 1166 1164 1161 1158 1155 1153 1153 1157 1160
1350 1343 1338 1333 1326 1320 1313 1304 1296 1287 1278 1271 1263 1256 1250 1244 1237 1231 1226 1218 1208 1199 1196 1193 1185 1181 1177 1167 1164 1162 1158 1153 1149 1145 1141 1140 1143 1147
1345 1338 1332 1325 1318 1312 1304 1298 1289 1281 1273 1265 1257 1249 1242 1235 1227 1221 1214 1207 1201 1193 1187 1184 1177 1174 1169 1165 1159 1155 1153 1148 1144 1138 1135 1133 1135 1140
1342 1334 1325 1319 1311 1304 1298 1291 1284 1276 1268 1259 1252 1243 1236 1227 1219 1211 1204 1197 1191 1184 1179 1175 1171 1168 1166 1162 1157 1153 1150 1144 1142 1139 1135 1133 1133 1137
1334 1326 1320 1313 1307 1300 1291 1285 1278 1272 1264 1256 1247 1238 1230 1221 1213 1206 1197 1189 1183 1176 1174 1170 1167 1165 1162 1159 1155 1151 1149 1148 1145 1143 1140 1137 1137 1138
1328 1321 1314 1308 1300 1293 1286 1280 1272 1265 1258 1250 1241 1232 1225 1218 1209 1202 1194 1187 1181 1176 1171 1167 1163 1161 1160 1158 1153 1150 1150 1149 1149 1147 1146 1146 1146 1146
1324 1318 1311 1305 1297 1290 1282 1274 1267 1259 1252 1245 1237 1230 1223 1216 1207 1200 1195 1189 1183 1178 1172 1166 1161 1158 1158 1158 1156 1153 1153 1153 1154 1154 1152 1152 1156 1160
1323 1315 1309 1302 1294 1287 1279 1271 1263 1256 1249 1241 1235 1228 1221 1214 1208 1203 1196 1190 1185 1180 1175 1169 1163 1160 1159 1159 1158 1157 1157 1158 1159 1159 1160 1162 1165 1171
1319 1313 1305 1298 1291 1283 1275 1268 1260 1252 1245 1238 1232 1226 1220 1214 1208 1203 1197 1192 1186 1182 1177 1173 1169 1165 1164 1164 1163 1163 1164 1164 1166 1167 1170 1173 1176 1181
1316 1309 1303 1295 1288 1280 1272 1265 1257 1249 1243 1236 1230 1224 1218 1213 1208 1202 1197 1192 1188 1184 1180 1177 1175 1173 1171 1169 1169 1169 1171 1172 1174 1176 1179 1181 1185 1190
1313 1306 1298 1292 1284 1276 1269 1261 1254 1247 1240 1235 1229 1223 1217 1212 1207 1201 1197 1192 1189 1186 1184 1182 1179 1177 1177 1175 1176 1177 1178 1180 1182 1185 1187 1190 1193 1197
1309 1303 1295 1288 1281 1273 1266 1259 1252 1246 1240 1234 1227 1222 1217 1210 1206 1202 1198 1195 1192 1189 1186 1185 1184 1183 1183 1183 1183 1185 1186 1188 1190 1193 1196 1199 1202 1206